Year,Month,Day,Hour,Minute,Value (Times are PST for temperature in C)
2013,10,28,00,00,11.80
2013,10,28,00,01,11.80
2013,10,28,00,02,11.80
2013,10,28,00,03,11.80
2013,10,28,00,04,11.80
2013,10,28,00,05,11.80
2013,10,28,00,06,11.70
2013,10,28,00,07,11.70
2013,10,28,00,08,11.60
2013,10,28,00,09,11.60
2013,10,28,00,10,11.50
2013,10,28,00,11,11.50
2013,10,28,00,12,11.40
2013,10,28,00,13,11.40
2013,10,28,00,14,11.30
2013,10,28,00,15,11.30
2013,10,28,00,16,11.30
2013,10,28,00,17,11.30
2013,10,28,00,18,11.30
2013,10,28,00,19,11.30
2013,10,28,00,20,11.30
2013,10,28,00,21,11.30
2013,10,28,00,22,11.40
2013,10,28,00,23,11.40
2013,10,28,00,24,11.40
2013,10,28,00,25,11.40
2013,10,28,00,26,11.40
2013,10,28,00,27,11.50
2013,10,28,00,28,11.50
2013,10,28,00,29,11.60
2013,10,28,00,30,11.60
2013,10,28,00,31,11.50
2013,10,28,00,32,11.50
2013,10,28,00,33,11.50
2013,10,28,00,34,11.40
2013,10,28,00,35,11.50
2013,10,28,00,36,11.50
2013,10,28,00,37,11.40
2013,10,28,00,38,11.40
2013,10,28,00,39,11.40
2013,10,28,00,40,11.40
2013,10,28,00,41,11.40
2013,10,28,00,42,11.30
2013,10,28,00,43,11.30
2013,10,28,00,44,11.30
2013,10,28,00,45,11.30
2013,10,28,00,46,11.30
2013,10,28,00,47,11.30
2013,10,28,00,48,11.30
2013,10,28,00,49,11.30
2013,10,28,00,50,11.30
2013,10,28,00,51,11.30
2013,10,28,00,52,11.30
2013,10,28,00,53,11.30
2013,10,28,00,54,11.30
2013,10,28,00,55,11.30
2013,10,28,00,56,11.30
2013,10,28,00,57,11.30
2013,10,28,00,58,11.30
2013,10,28,00,59,11.30
2013,10,28,01,00,11.30
2013,10,28,01,01,11.30
2013,10,28,01,02,11.30
2013,10,28,01,03,11.30
2013,10,28,01,04,11.30
2013,10,28,01,05,11.30
2013,10,28,01,06,11.20
2013,10,28,01,07,11.20
2013,10,28,01,08,11.20
2013,10,28,01,09,11.20
2013,10,28,01,10,11.20
2013,10,28,01,11,11.20
2013,10,28,01,12,11.20
2013,10,28,01,13,11.20
2013,10,28,01,14,11.20
2013,10,28,01,15,11.20
2013,10,28,01,16,11.20
2013,10,28,01,17,11.30
2013,10,28,01,18,11.30
2013,10,28,01,19,11.30
2013,10,28,01,20,11.30
2013,10,28,01,21,11.30
2013,10,28,01,22,11.30
2013,10,28,01,23,11.30
2013,10,28,01,24,11.30
2013,10,28,01,25,11.20
2013,10,28,01,26,11.20
2013,10,28,01,27,11.20
2013,10,28,01,28,11.20
2013,10,28,01,29,11.20
2013,10,28,01,30,11.20
2013,10,28,01,31,11.20
2013,10,28,01,32,11.10
2013,10,28,01,33,11.20
2013,10,28,01,34,11.20
2013,10,28,01,35,11.20
2013,10,28,01,36,11.20
2013,10,28,01,37,11.20
2013,10,28,01,38,11.20
2013,10,28,01,39,11.10
2013,10,28,01,40,11.10
2013,10,28,01,41,11.10
2013,10,28,01,42,11.10
2013,10,28,01,43,11.00
2013,10,28,01,44,11.00
2013,10,28,01,45,11.00
2013,10,28,01,46,11.00
2013,10,28,01,47,10.90
2013,10,28,01,48,10.90
2013,10,28,01,49,10.90
2013,10,28,01,50,10.90
2013,10,28,01,51,10.80
2013,10,28,01,52,10.80
2013,10,28,01,53,10.80
2013,10,28,01,54,10.80
2013,10,28,01,55,10.80
2013,10,28,01,56,10.80
2013,10,28,01,57,10.80
2013,10,28,01,58,10.80
2013,10,28,01,59,10.80
2013,10,28,02,00,10.80
2013,10,28,02,01,10.80
2013,10,28,02,02,10.80
2013,10,28,02,03,10.70
2013,10,28,02,04,10.70
2013,10,28,02,05,10.70
2013,10,28,02,06,10.70
2013,10,28,02,07,10.70
2013,10,28,02,08,10.70
2013,10,28,02,09,10.70
2013,10,28,02,10,10.70
2013,10,28,02,11,10.80
2013,10,28,02,12,10.80
2013,10,28,02,13,10.80
2013,10,28,02,14,10.80
2013,10,28,02,15,10.80
2013,10,28,02,16,10.80
2013,10,28,02,17,10.80
2013,10,28,02,18,10.80
2013,10,28,02,19,10.80
2013,10,28,02,20,10.80
2013,10,28,02,21,10.80
2013,10,28,02,22,10.70
2013,10,28,02,23,10.70
2013,10,28,02,24,10.70
2013,10,28,02,25,10.70
2013,10,28,02,26,10.70
2013,10,28,02,27,10.70
2013,10,28,02,28,10.70
2013,10,28,02,29,10.70
2013,10,28,02,30,10.60
2013,10,28,02,31,10.60
2013,10,28,02,32,10.60
2013,10,28,02,33,10.60
2013,10,28,02,34,10.60
2013,10,28,02,35,10.60
2013,10,28,02,36,10.60
2013,10,28,02,37,10.60
2013,10,28,02,38,10.60
2013,10,28,02,39,10.60
2013,10,28,02,40,10.60
2013,10,28,02,41,10.60
2013,10,28,02,42,10.60
2013,10,28,02,43,10.60
2013,10,28,02,44,10.70
2013,10,28,02,45,10.70
2013,10,28,02,46,10.70
2013,10,28,02,47,10.70
2013,10,28,02,48,10.70
2013,10,28,02,49,10.70
2013,10,28,02,50,10.70
2013,10,28,02,51,10.70
2013,10,28,02,52,10.70
2013,10,28,02,53,10.70
2013,10,28,02,54,10.70
2013,10,28,02,55,10.60
2013,10,28,02,56,10.60
2013,10,28,02,57,10.50
2013,10,28,02,58,10.60
2013,10,28,02,59,10.60
2013,10,28,03,00,10.60
2013,10,28,03,01,10.60
2013,10,28,03,02,10.60
2013,10,28,03,03,10.50
2013,10,28,03,04,10.50
2013,10,28,03,05,10.50
2013,10,28,03,06,10.40
2013,10,28,03,07,10.40
2013,10,28,03,08,10.40
2013,10,28,03,09,10.40
2013,10,28,03,10,10.40
2013,10,28,03,11,10.30
2013,10,28,03,12,10.30
2013,10,28,03,13,10.30
2013,10,28,03,14,10.30
2013,10,28,03,15,10.20
2013,10,28,03,16,10.10
2013,10,28,03,17,10.00
2013,10,28,03,18,10.00
2013,10,28,03,19,9.90
2013,10,28,03,20,9.80
2013,10,28,03,21,9.70
2013,10,28,03,22,9.60
2013,10,28,03,23,9.60
2013,10,28,03,24,9.60
2013,10,28,03,25,9.60
2013,10,28,03,26,9.70
2013,10,28,03,27,9.70
2013,10,28,03,28,9.60
2013,10,28,03,29,9.60
2013,10,28,03,30,9.60
2013,10,28,03,31,9.60
2013,10,28,03,32,9.60
2013,10,28,03,33,9.60
2013,10,28,03,34,9.60
2013,10,28,03,35,9.60
2013,10,28,03,36,9.60
2013,10,28,03,37,9.60
2013,10,28,03,38,9.60
2013,10,28,03,39,9.60
2013,10,28,03,40,9.60
2013,10,28,03,41,9.50
2013,10,28,03,42,9.50
2013,10,28,03,43,9.40
2013,10,28,03,44,9.40
2013,10,28,03,45,9.30
2013,10,28,03,46,9.30
2013,10,28,03,47,9.30
2013,10,28,03,48,9.30
2013,10,28,03,49,9.20
2013,10,28,03,50,9.20
2013,10,28,03,51,9.20
2013,10,28,03,52,9.20
2013,10,28,03,53,9.20
2013,10,28,03,54,9.20
2013,10,28,03,55,9.20
2013,10,28,03,56,9.20
2013,10,28,03,57,9.20
2013,10,28,03,58,9.10
2013,10,28,03,59,9.00
2013,10,28,04,00,8.90
2013,10,28,04,01,8.80
2013,10,28,04,02,8.70
2013,10,28,04,03,8.70
2013,10,28,04,04,8.70
2013,10,28,04,05,8.70
2013,10,28,04,06,8.70
2013,10,28,04,07,8.70
2013,10,28,04,08,8.60
2013,10,28,04,09,8.60
2013,10,28,04,10,8.50
2013,10,28,04,11,8.40
2013,10,28,04,12,8.30
2013,10,28,04,13,8.20
2013,10,28,04,14,8.10
2013,10,28,04,15,8.00
2013,10,28,04,16,8.00
2013,10,28,04,17,8.00
2013,10,28,04,18,7.90
2013,10,28,04,19,7.90
2013,10,28,04,20,7.80
2013,10,28,04,21,7.80
2013,10,28,04,22,7.70
2013,10,28,04,23,7.70
2013,10,28,04,24,7.60
2013,10,28,04,25,7.60
2013,10,28,04,26,7.60
2013,10,28,04,27,7.50
2013,10,28,04,28,7.60
2013,10,28,04,29,7.60
2013,10,28,04,30,7.60
2013,10,28,04,31,7.60
2013,10,28,04,32,7.60
2013,10,28,04,33,7.50
2013,10,28,04,34,7.50
2013,10,28,04,35,7.50
2013,10,28,04,36,7.50
2013,10,28,04,37,7.50
2013,10,28,04,38,7.50
2013,10,28,04,39,7.50
2013,10,28,04,40,7.50
2013,10,28,04,41,7.40
2013,10,28,04,42,7.40
2013,10,28,04,43,7.40
2013,10,28,04,44,7.30
2013,10,28,04,45,7.30
2013,10,28,04,46,7.20
2013,10,28,04,47,7.20
2013,10,28,04,48,7.20
2013,10,28,04,49,7.20
2013,10,28,04,50,7.10
2013,10,28,04,51,7.10
2013,10,28,04,52,7.10
2013,10,28,04,53,7.10
2013,10,28,04,54,7.10
2013,10,28,04,55,7.10
2013,10,28,04,56,7.10
2013,10,28,04,57,7.10
2013,10,28,04,58,7.10
2013,10,28,04,59,7.10
2013,10,28,05,00,7.10
2013,10,28,05,01,7.20
2013,10,28,05,02,7.20
2013,10,28,05,03,7.30
2013,10,28,05,04,7.50
2013,10,28,05,05,7.70
2013,10,28,05,06,7.90
2013,10,28,05,07,8.10
2013,10,28,05,08,8.20
2013,10,28,05,09,8.30
2013,10,28,05,10,8.30
2013,10,28,05,11,8.40
2013,10,28,05,12,8.40
2013,10,28,05,13,8.40
2013,10,28,05,14,8.50
2013,10,28,05,15,8.60
2013,10,28,05,16,8.70
2013,10,28,05,17,8.80
2013,10,28,05,18,8.80
2013,10,28,05,19,8.80
2013,10,28,05,20,8.80
2013,10,28,05,21,8.80
2013,10,28,05,22,8.80
2013,10,28,05,23,8.80
2013,10,28,05,24,8.70
2013,10,28,05,25,8.60
2013,10,28,05,26,8.50
2013,10,28,05,27,8.40
2013,10,28,05,28,8.40
2013,10,28,05,29,8.30
2013,10,28,05,30,8.30
2013,10,28,05,31,8.20
2013,10,28,05,32,8.20
2013,10,28,05,33,8.10
2013,10,28,05,34,8.10
2013,10,28,05,35,8.00
2013,10,28,05,36,8.00
2013,10,28,05,37,8.00
2013,10,28,05,38,8.00
2013,10,28,05,39,7.90
2013,10,28,05,40,7.90
2013,10,28,05,41,7.80
2013,10,28,05,42,7.70
2013,10,28,05,43,7.70
2013,10,28,05,44,7.70
2013,10,28,05,45,7.60
2013,10,28,05,46,7.50
2013,10,28,05,47,7.50
2013,10,28,05,48,7.40
2013,10,28,05,49,7.30
2013,10,28,05,50,7.20
2013,10,28,05,51,7.20
2013,10,28,05,52,7.20
2013,10,28,05,53,7.10
2013,10,28,05,54,7.10
2013,10,28,05,55,7.00
2013,10,28,05,56,7.00
2013,10,28,05,57,6.90
2013,10,28,05,58,6.90
2013,10,28,05,59,7.00
2013,10,28,06,00,7.00
2013,10,28,06,01,7.10
2013,10,28,06,02,7.10
2013,10,28,06,03,7.20
2013,10,28,06,04,7.20
2013,10,28,06,05,7.20
2013,10,28,06,06,7.10
2013,10,28,06,07,7.10
2013,10,28,06,08,7.10
2013,10,28,06,09,7.10
2013,10,28,06,10,7.10
2013,10,28,06,11,7.10
2013,10,28,06,12,7.00
2013,10,28,06,13,7.00
2013,10,28,06,14,7.00
2013,10,28,06,15,6.90
2013,10,28,06,16,6.90
2013,10,28,06,17,6.90
2013,10,28,06,18,6.80
2013,10,28,06,19,6.80
2013,10,28,06,20,6.80
2013,10,28,06,21,6.80
2013,10,28,06,22,6.80
2013,10,28,06,23,6.80
2013,10,28,06,24,6.80
2013,10,28,06,25,6.80
2013,10,28,06,26,6.80
2013,10,28,06,27,6.90
2013,10,28,06,28,6.90
2013,10,28,06,29,6.90
2013,10,28,06,30,7.00
2013,10,28,06,31,7.10
2013,10,28,06,32,7.20
2013,10,28,06,33,7.20
2013,10,28,06,34,7.20
2013,10,28,06,35,7.20
2013,10,28,06,36,7.20
2013,10,28,06,37,7.20
2013,10,28,06,38,7.10
2013,10,28,06,39,7.00
2013,10,28,06,40,6.90
2013,10,28,06,41,6.80
2013,10,28,06,42,6.70
2013,10,28,06,43,6.70
2013,10,28,06,44,6.60
2013,10,28,06,45,6.60
2013,10,28,06,46,6.50
2013,10,28,06,47,6.60
2013,10,28,06,48,6.60
2013,10,28,06,49,6.70
2013,10,28,06,50,6.70
2013,10,28,06,51,6.70
2013,10,28,06,52,6.70
2013,10,28,06,53,6.70
2013,10,28,06,54,6.80
2013,10,28,06,55,6.80
2013,10,28,06,56,7.00
2013,10,28,06,57,7.20
2013,10,28,06,58,7.30
2013,10,28,06,59,7.30
2013,10,28,07,00,7.40
2013,10,28,07,01,7.40
2013,10,28,07,02,7.40
2013,10,28,07,03,7.40
2013,10,28,07,04,7.40
2013,10,28,07,05,7.40
2013,10,28,07,06,7.40
2013,10,28,07,07,7.40
2013,10,28,07,08,7.30
2013,10,28,07,09,7.30
2013,10,28,07,10,7.20
2013,10,28,07,11,7.20
2013,10,28,07,12,7.20
2013,10,28,07,13,7.20
2013,10,28,07,14,7.10
2013,10,28,07,15,7.10
2013,10,28,07,16,7.00
2013,10,28,07,17,6.90
2013,10,28,07,18,6.90
2013,10,28,07,19,6.80
2013,10,28,07,20,6.80
2013,10,28,07,21,6.70
2013,10,28,07,22,6.70
2013,10,28,07,23,6.70
2013,10,28,07,24,6.70
2013,10,28,07,25,6.70
2013,10,28,07,26,6.60
2013,10,28,07,27,6.60
2013,10,28,07,28,6.60
2013,10,28,07,29,6.70
2013,10,28,07,30,6.70
2013,10,28,07,31,6.70
2013,10,28,07,32,6.70
2013,10,28,07,33,6.60
2013,10,28,07,34,6.60
2013,10,28,07,35,6.60
2013,10,28,07,36,6.60
2013,10,28,07,37,6.60
2013,10,28,07,38,6.60
2013,10,28,07,39,6.70
2013,10,28,07,40,6.60
2013,10,28,07,41,6.60
2013,10,28,07,42,6.70
2013,10,28,07,43,6.80
2013,10,28,07,44,6.80
2013,10,28,07,45,6.90
2013,10,28,07,46,6.90
2013,10,28,07,47,6.90
2013,10,28,07,48,6.90
2013,10,28,07,49,6.90
2013,10,28,07,50,6.80
2013,10,28,07,51,6.80
2013,10,28,07,52,6.80
2013,10,28,07,53,6.80
2013,10,28,07,54,6.80
2013,10,28,07,55,6.80
2013,10,28,07,56,6.80
2013,10,28,07,57,6.80
2013,10,28,07,58,6.80
2013,10,28,07,59,6.80
2013,10,28,08,00,6.70
2013,10,28,08,01,6.70
2013,10,28,08,02,6.70
2013,10,28,08,03,6.60
2013,10,28,08,04,6.60
2013,10,28,08,05,6.60
2013,10,28,08,06,6.60
2013,10,28,08,07,6.50
2013,10,28,08,08,6.40
2013,10,28,08,09,6.40
2013,10,28,08,10,6.30
2013,10,28,08,11,6.30
2013,10,28,08,12,6.30
2013,10,28,08,13,6.30
2013,10,28,08,14,6.30
2013,10,28,08,15,6.20
2013,10,28,08,16,6.20
2013,10,28,08,17,6.10
2013,10,28,08,18,6.10
2013,10,28,08,19,6.10
2013,10,28,08,20,6.00
2013,10,28,08,21,5.90
2013,10,28,08,22,5.90
2013,10,28,08,23,5.90
2013,10,28,08,24,5.80
2013,10,28,08,25,5.90
2013,10,28,08,26,6.00
2013,10,28,08,27,6.00
2013,10,28,08,28,6.10
2013,10,28,08,29,6.10
2013,10,28,08,30,6.00
2013,10,28,08,31,6.00
2013,10,28,08,32,5.90
2013,10,28,08,33,5.90
2013,10,28,08,34,5.80
2013,10,28,08,35,5.80
2013,10,28,08,36,5.80
2013,10,28,08,37,5.80
2013,10,28,08,38,5.80
2013,10,28,08,39,5.80
2013,10,28,08,40,5.80
2013,10,28,08,41,5.80
2013,10,28,08,42,5.80
2013,10,28,08,43,5.80
2013,10,28,08,44,5.80
2013,10,28,08,45,5.80
2013,10,28,08,46,5.80
2013,10,28,08,47,5.80
2013,10,28,08,48,5.80
2013,10,28,08,49,5.90
2013,10,28,08,50,5.90
2013,10,28,08,51,6.00
2013,10,28,08,52,6.10
2013,10,28,08,53,6.10
2013,10,28,08,54,6.10
2013,10,28,08,55,6.10
2013,10,28,08,56,6.10
2013,10,28,08,57,6.10
2013,10,28,08,58,6.10
2013,10,28,08,59,6.10
2013,10,28,09,00,6.00
2013,10,28,09,01,6.00
2013,10,28,09,02,5.90
2013,10,28,09,03,5.90
2013,10,28,09,04,5.90
2013,10,28,09,05,5.90
2013,10,28,09,06,5.80
2013,10,28,09,07,5.80
2013,10,28,09,08,5.90
2013,10,28,09,09,5.90
2013,10,28,09,10,5.90
2013,10,28,09,11,6.00
2013,10,28,09,12,6.00
2013,10,28,09,13,6.10
2013,10,28,09,14,6.20
2013,10,28,09,15,6.30
2013,10,28,09,16,6.40
2013,10,28,09,17,6.50
2013,10,28,09,18,6.60
2013,10,28,09,19,6.70
2013,10,28,09,20,6.80
2013,10,28,09,21,6.90
2013,10,28,09,22,7.00
2013,10,28,09,23,7.10
2013,10,28,09,24,7.20
2013,10,28,09,25,7.20
2013,10,28,09,26,7.30
2013,10,28,09,27,7.40
2013,10,28,09,28,7.50
2013,10,28,09,29,7.60
2013,10,28,09,30,7.80
2013,10,28,09,31,7.80
2013,10,28,09,32,8.00
2013,10,28,09,33,8.10
2013,10,28,09,34,8.20
2013,10,28,09,35,8.30
2013,10,28,09,36,8.30
2013,10,28,09,37,8.40
2013,10,28,09,38,8.40
2013,10,28,09,39,8.50
2013,10,28,09,40,8.60
2013,10,28,09,41,8.60
2013,10,28,09,42,8.60
2013,10,28,09,43,8.70
2013,10,28,09,44,8.80
2013,10,28,09,45,8.90
2013,10,28,09,46,9.00
2013,10,28,09,47,9.00
2013,10,28,09,48,9.10
2013,10,28,09,49,9.10
2013,10,28,09,50,9.10
2013,10,28,09,51,9.00
2013,10,28,09,52,9.00
2013,10,28,09,53,9.00
2013,10,28,09,54,9.10
2013,10,28,09,55,9.10
2013,10,28,09,56,9.20
2013,10,28,09,57,9.40
2013,10,28,09,58,9.50
2013,10,28,09,59,9.70
2013,10,28,10,00,9.90
2013,10,28,10,01,10.00
2013,10,28,10,02,10.20
2013,10,28,10,03,10.30
2013,10,28,10,04,10.40
2013,10,28,10,05,10.50
2013,10,28,10,06,10.50
2013,10,28,10,07,10.60
2013,10,28,10,08,10.70
2013,10,28,10,09,10.80
2013,10,28,10,10,10.80
2013,10,28,10,11,10.90
2013,10,28,10,12,11.00
2013,10,28,10,13,11.00
2013,10,28,10,14,11.10
2013,10,28,10,15,11.20
2013,10,28,10,16,11.30
2013,10,28,10,17,11.40
2013,10,28,10,18,11.50
2013,10,28,10,19,11.50
2013,10,28,10,20,11.60
2013,10,28,10,21,11.60
2013,10,28,10,22,11.60
2013,10,28,10,23,11.70
2013,10,28,10,24,11.70
2013,10,28,10,25,11.70
2013,10,28,10,26,11.80
2013,10,28,10,27,11.80
2013,10,28,10,28,11.80
2013,10,28,10,29,11.80
2013,10,28,10,30,11.90
2013,10,28,10,31,11.90
2013,10,28,10,32,11.90
2013,10,28,10,33,11.90
2013,10,28,10,34,12.00
2013,10,28,10,35,12.00
2013,10,28,10,36,12.00
2013,10,28,10,37,12.10
2013,10,28,10,38,12.10
2013,10,28,10,39,12.10
2013,10,28,10,40,12.10
2013,10,28,10,41,12.10
2013,10,28,10,42,12.10
2013,10,28,10,43,12.10
2013,10,28,10,44,12.10
2013,10,28,10,45,12.10
2013,10,28,10,46,12.20
2013,10,28,10,47,12.20
2013,10,28,10,48,12.20
2013,10,28,10,49,12.20
2013,10,28,10,50,12.20
2013,10,28,10,51,12.20
2013,10,28,10,52,12.20
2013,10,28,10,53,12.20
2013,10,28,10,54,12.20
2013,10,28,10,55,12.20
2013,10,28,10,56,12.20
2013,10,28,10,57,12.20
2013,10,28,10,58,12.30
2013,10,28,10,59,12.30
2013,10,28,11,00,12.30
2013,10,28,11,01,12.30
2013,10,28,11,02,12.30
2013,10,28,11,03,12.30
2013,10,28,11,04,12.30
2013,10,28,11,05,12.30
2013,10,28,11,06,12.30
2013,10,28,11,07,12.30
2013,10,28,11,08,12.30
2013,10,28,11,09,12.40
2013,10,28,11,10,12.40
2013,10,28,11,11,12.40
2013,10,28,11,12,12.50
2013,10,28,11,13,12.50
2013,10,28,11,14,12.50
2013,10,28,11,15,12.50
2013,10,28,11,16,12.60
2013,10,28,11,17,12.60
2013,10,28,11,18,12.60
2013,10,28,11,19,12.60
2013,10,28,11,20,12.70
2013,10,28,11,21,12.70
2013,10,28,11,22,12.70
2013,10,28,11,23,12.70
2013,10,28,11,24,12.70
2013,10,28,11,25,12.70
2013,10,28,11,26,12.70
2013,10,28,11,27,12.70
2013,10,28,11,28,12.70
2013,10,28,11,29,12.70
2013,10,28,11,30,12.80
2013,10,28,11,31,12.80
2013,10,28,11,32,12.80
2013,10,28,11,33,12.80
2013,10,28,11,34,12.90
2013,10,28,11,35,12.90
2013,10,28,11,36,12.90
2013,10,28,11,37,12.90
2013,10,28,11,38,13.00
2013,10,28,11,39,13.00
2013,10,28,11,40,13.10
2013,10,28,11,41,13.10
2013,10,28,11,42,13.10
2013,10,28,11,43,13.10
2013,10,28,11,44,13.10
2013,10,28,11,45,13.10
2013,10,28,11,46,13.10
2013,10,28,11,47,13.10
2013,10,28,11,48,13.10
2013,10,28,11,49,13.20
2013,10,28,11,50,13.20
2013,10,28,11,51,13.20
2013,10,28,11,52,13.20
2013,10,28,11,53,13.20
2013,10,28,11,54,13.20
2013,10,28,11,55,13.20
2013,10,28,11,56,13.20
2013,10,28,11,57,13.20
2013,10,28,11,58,13.20
2013,10,28,11,59,13.20
2013,10,28,12,00,13.30
2013,10,28,12,01,13.30
2013,10,28,12,02,13.30
2013,10,28,12,03,13.30
2013,10,28,12,04,13.30
2013,10,28,12,05,13.30
2013,10,28,12,06,13.30
2013,10,28,12,07,13.30
2013,10,28,12,08,13.30
2013,10,28,12,09,13.30
2013,10,28,12,10,13.30
2013,10,28,12,11,13.30
2013,10,28,12,12,13.30
2013,10,28,12,13,13.30
2013,10,28,12,14,13.40
2013,10,28,12,15,13.40
2013,10,28,12,16,13.40
2013,10,28,12,17,13.40
2013,10,28,12,18,13.50
2013,10,28,12,19,13.60
2013,10,28,12,20,13.60
2013,10,28,12,21,13.60
2013,10,28,12,22,13.60
2013,10,28,12,23,13.60
2013,10,28,12,24,13.60
2013,10,28,12,25,13.60
2013,10,28,12,26,13.60
2013,10,28,12,27,13.70
2013,10,28,12,28,13.70
2013,10,28,12,29,13.70
2013,10,28,12,30,13.70
2013,10,28,12,31,13.70
2013,10,28,12,32,13.80
2013,10,28,12,33,13.80
2013,10,28,12,34,13.80
2013,10,28,12,35,13.80
2013,10,28,12,36,13.90
2013,10,28,12,37,13.90
2013,10,28,12,38,13.90
2013,10,28,12,39,13.90
2013,10,28,12,40,13.90
2013,10,28,12,41,13.80
2013,10,28,12,42,13.80
2013,10,28,12,43,13.80
2013,10,28,12,44,13.80
2013,10,28,12,45,13.70
2013,10,28,12,46,13.70
2013,10,28,12,47,13.70
2013,10,28,12,48,13.70
2013,10,28,12,49,13.70
2013,10,28,12,50,13.80
2013,10,28,12,51,13.70
2013,10,28,12,52,13.80
2013,10,28,12,53,13.80
2013,10,28,12,54,13.80
2013,10,28,12,55,13.80
2013,10,28,12,56,13.80
2013,10,28,12,57,13.80
2013,10,28,12,58,13.80
2013,10,28,12,59,13.80
2013,10,28,13,00,13.80
2013,10,28,13,01,13.80
2013,10,28,13,02,13.80
2013,10,28,13,03,13.70
2013,10,28,13,04,13.70
2013,10,28,13,05,13.70
2013,10,28,13,06,13.70
2013,10,28,13,07,13.80
2013,10,28,13,08,13.80
2013,10,28,13,09,13.80
2013,10,28,13,10,13.80
2013,10,28,13,11,13.80
2013,10,28,13,12,13.90
2013,10,28,13,13,13.90
2013,10,28,13,14,14.00
2013,10,28,13,15,14.00
2013,10,28,13,16,14.10
2013,10,28,13,17,14.10
2013,10,28,13,18,14.00
2013,10,28,13,19,14.00
2013,10,28,13,20,13.90
2013,10,28,13,21,13.90
2013,10,28,13,22,13.80
2013,10,28,13,23,13.80
2013,10,28,13,24,13.70
2013,10,28,13,25,13.70
2013,10,28,13,26,13.70
2013,10,28,13,27,13.70
2013,10,28,13,28,13.70
2013,10,28,13,29,13.70
2013,10,28,13,30,13.70
2013,10,28,13,31,13.60
2013,10,28,13,32,13.60
2013,10,28,13,33,13.70
2013,10,28,13,34,13.70
2013,10,28,13,35,13.70
2013,10,28,13,36,13.70
2013,10,28,13,37,13.70
2013,10,28,13,38,13.70
2013,10,28,13,39,13.70
2013,10,28,13,40,13.70
2013,10,28,13,41,13.70
2013,10,28,13,42,13.70
2013,10,28,13,43,13.70
2013,10,28,13,44,13.70
2013,10,28,13,45,13.70
2013,10,28,13,46,13.70
2013,10,28,13,47,13.70
2013,10,28,13,48,13.80
2013,10,28,13,49,13.80
2013,10,28,13,50,13.80
2013,10,28,13,51,13.80
2013,10,28,13,52,13.80
2013,10,28,13,53,13.80
2013,10,28,13,54,13.80
2013,10,28,13,55,13.90
2013,10,28,13,56,13.90
2013,10,28,13,57,13.90
2013,10,28,13,58,14.00
2013,10,28,13,59,14.00
2013,10,28,14,00,14.00
2013,10,28,14,01,14.00
2013,10,28,14,02,14.00
2013,10,28,14,03,14.00
2013,10,28,14,04,14.10
2013,10,28,14,05,14.00
2013,10,28,14,06,14.00
2013,10,28,14,07,14.00
2013,10,28,14,08,14.00
2013,10,28,14,09,14.00
2013,10,28,14,10,14.00
2013,10,28,14,11,14.00
2013,10,28,14,12,14.00
2013,10,28,14,13,13.90
2013,10,28,14,14,13.90
2013,10,28,14,15,13.90
2013,10,28,14,16,13.90
2013,10,28,14,17,13.90
2013,10,28,14,18,14.00
2013,10,28,14,19,14.10
2013,10,28,14,20,14.10
2013,10,28,14,21,14.20
2013,10,28,14,22,14.20
2013,10,28,14,23,14.20
2013,10,28,14,24,14.30
2013,10,28,14,25,14.30
2013,10,28,14,26,14.30
2013,10,28,14,27,14.30
2013,10,28,14,28,14.30
2013,10,28,14,29,14.40
2013,10,28,14,30,14.40
2013,10,28,14,31,14.40
2013,10,28,14,32,14.40
2013,10,28,14,33,14.50
2013,10,28,14,34,14.50
2013,10,28,14,35,14.50
2013,10,28,14,36,14.50
2013,10,28,14,37,14.50
2013,10,28,14,38,14.40
2013,10,28,14,39,14.40
2013,10,28,14,40,14.40
2013,10,28,14,41,14.40
2013,10,28,14,42,14.40
2013,10,28,14,43,14.40
2013,10,28,14,44,14.40
2013,10,28,14,45,14.40
2013,10,28,14,46,14.40
2013,10,28,14,47,14.40
2013,10,28,14,48,14.40
2013,10,28,14,49,14.40
2013,10,28,14,50,14.40
2013,10,28,14,51,14.50
2013,10,28,14,52,14.50
2013,10,28,14,53,14.50
2013,10,28,14,54,14.60
2013,10,28,14,55,14.60
2013,10,28,14,56,14.60
2013,10,28,14,57,14.50
2013,10,28,14,58,14.50
2013,10,28,14,59,14.50
2013,10,28,15,00,14.50
2013,10,28,15,01,14.40
2013,10,28,15,02,14.40
2013,10,28,15,03,14.40
2013,10,28,15,04,14.40
2013,10,28,15,05,14.40
2013,10,28,15,06,14.50
2013,10,28,15,07,14.60
2013,10,28,15,08,14.60
2013,10,28,15,09,14.60
2013,10,28,15,10,14.60
2013,10,28,15,11,14.60
2013,10,28,15,12,14.60
2013,10,28,15,13,14.60
2013,10,28,15,14,14.70
2013,10,28,15,15,14.70
2013,10,28,15,16,14.70
2013,10,28,15,17,14.60
2013,10,28,15,18,14.60
2013,10,28,15,19,14.60
2013,10,28,15,20,14.60
2013,10,28,15,21,14.60
2013,10,28,15,22,14.60
2013,10,28,15,23,14.60
2013,10,28,15,24,14.60
2013,10,28,15,25,14.60
2013,10,28,15,26,14.60
2013,10,28,15,27,14.70
2013,10,28,15,28,14.70
2013,10,28,15,29,14.70
2013,10,28,15,30,14.70
2013,10,28,15,31,14.80
2013,10,28,15,32,14.70
2013,10,28,15,33,14.70
2013,10,28,15,34,14.70
2013,10,28,15,35,14.70
2013,10,28,15,36,14.70
2013,10,28,15,37,14.70
2013,10,28,15,38,14.70
2013,10,28,15,39,14.70
2013,10,28,15,40,14.70
2013,10,28,15,41,14.70
2013,10,28,15,42,14.70
2013,10,28,15,43,14.70
2013,10,28,15,44,14.70
2013,10,28,15,45,14.70
2013,10,28,15,46,14.60
2013,10,28,15,47,14.60
2013,10,28,15,48,14.60
2013,10,28,15,49,14.60
2013,10,28,15,50,14.60
2013,10,28,15,51,14.60
2013,10,28,15,52,14.60
2013,10,28,15,53,14.60
2013,10,28,15,54,14.60
2013,10,28,15,55,14.50
2013,10,28,15,56,14.50
2013,10,28,15,57,14.40
2013,10,28,15,58,14.30
2013,10,28,15,59,14.20
2013,10,28,16,00,14.10
2013,10,28,16,01,14.00
2013,10,28,16,02,13.90
2013,10,28,16,03,13.80
2013,10,28,16,04,13.70
2013,10,28,16,05,13.60
2013,10,28,16,06,13.60
2013,10,28,16,07,13.60
2013,10,28,16,08,13.50
2013,10,28,16,09,13.50
2013,10,28,16,10,13.50
2013,10,28,16,11,13.50
2013,10,28,16,12,13.50
2013,10,28,16,13,13.50
2013,10,28,16,14,13.40
2013,10,28,16,15,13.30
2013,10,28,16,16,13.30
2013,10,28,16,17,13.20
2013,10,28,16,18,13.20
2013,10,28,16,19,13.20
2013,10,28,16,20,13.10
2013,10,28,16,21,13.00
2013,10,28,16,22,12.90
2013,10,28,16,23,12.90
2013,10,28,16,24,12.80
2013,10,28,16,25,12.70
2013,10,28,16,26,12.70
2013,10,28,16,27,12.60
2013,10,28,16,28,12.60
2013,10,28,16,29,12.50
2013,10,28,16,30,12.50
2013,10,28,16,31,12.40
2013,10,28,16,32,12.30
2013,10,28,16,33,12.30
2013,10,28,16,34,12.30
2013,10,28,16,35,12.30
2013,10,28,16,36,12.20
2013,10,28,16,37,12.20
2013,10,28,16,38,12.20
2013,10,28,16,39,12.20
2013,10,28,16,40,12.20
2013,10,28,16,41,12.10
2013,10,28,16,42,12.10
2013,10,28,16,43,12.10
2013,10,28,16,44,12.10
2013,10,28,16,45,12.00
2013,10,28,16,46,12.00
2013,10,28,16,47,11.90
2013,10,28,16,48,11.90
2013,10,28,16,49,11.80
2013,10,28,16,50,11.80
2013,10,28,16,51,11.70
2013,10,28,16,52,11.70
2013,10,28,16,53,11.60
2013,10,28,16,54,11.60
2013,10,28,16,55,11.50
2013,10,28,16,56,11.50
2013,10,28,16,57,11.40
2013,10,28,16,58,11.40
2013,10,28,16,59,11.40
2013,10,28,17,00,11.40
2013,10,28,17,01,11.30
2013,10,28,17,02,11.30
2013,10,28,17,03,11.30
2013,10,28,17,04,11.20
2013,10,28,17,05,11.20
2013,10,28,17,06,11.10
2013,10,28,17,07,11.10
2013,10,28,17,08,11.00
2013,10,28,17,09,10.90
2013,10,28,17,10,10.80
2013,10,28,17,11,10.80
2013,10,28,17,12,10.70
2013,10,28,17,13,10.60
2013,10,28,17,14,10.60
2013,10,28,17,15,10.50
2013,10,28,17,16,10.40
2013,10,28,17,17,10.40
2013,10,28,17,18,10.40
2013,10,28,17,19,10.30
2013,10,28,17,20,10.20
2013,10,28,17,21,10.20
2013,10,28,17,22,10.20
2013,10,28,17,23,10.10
2013,10,28,17,24,10.10
2013,10,28,17,25,10.10
2013,10,28,17,26,10.10
2013,10,28,17,27,10.10
2013,10,28,17,28,10.10
2013,10,28,17,29,10.10
2013,10,28,17,30,10.10
2013,10,28,17,31,10.00
2013,10,28,17,32,10.00
2013,10,28,17,33,9.90
2013,10,28,17,34,9.90
2013,10,28,17,35,9.90
2013,10,28,17,36,9.80
2013,10,28,17,37,9.80